EHI
0 0 0 0 0 0 0 0 0 1 2 3 3 2 2 2 2 3 2 1 0 1 1 1 2 2 1 0 1 1 1 0 0 0 0 0 0 1 0 0 0 0 0
0 0 0 0 0 0 0 0 0 0 1 2 2 1 1 1 1 2 2 1 1 3 3 2 1 1 0 0 1 2 1 0 0 0 0 0 0 1 0 0 0 1 1
0 0 0 0 0 0 0 0 0 0 1 1 1 0 0 0 0 1 1 1 2 4 5 4 2 0 0 0 1 1 1 0 0 0 0 0 0 0 0 0 0 1 2
0 0 0 0 0 0 0 0 1 1 0 0 0 0 0 0 0 0 0 0 2 3 4 3 1 0 0 0 0 0 0 0 0 0 0 0 0 0 0 0 0 1 1
0 0 1 0 0 0 0 0 1 1 0 0 0 0 0 0 0 0 0 0 1 2 2 2 1 0 0 0 0 0 0 0 0 0 0 0 0 0 0 0 0 0 0
0 0 0 0 0 0 0 0 1 1 0 0 0 0 0 0 0 0 0 0 1 1 1 1 0 0 0 0 0 0 0 0 0 0 0 0 0 0 0 0 0 0 0
0 0 0 0 0 0 0 0 0 0 0 0 0 0 0 0 0 0 1 1 0 0 0 0 0 0 0 0 0 0 0 0 0 0 0 0 0 0 0 0 0 0 0
0 0 0 0 0 0 0 0 0 0 0 0 0 0 0 0 0 1 2 2 1 1 0 0 0 0 0 0 0 0 0 0 0 0 0 0 0 0 0 0 0 0 0
0 0 0 0 0 0 0 0 0 0 0 0 0 0 0 0 0 1 2 3 2 1 0 0 1 0 0 0 0 0 0 0 0 0 0 0 0 0 0 0 0 0 0
0 0 0 0 0 0 0 0 0 0 0 0 0 0 0 0 0 1 2 2 2 1 0 0 0 0 0 0 0 0 0 0 0 0 0 0 0 0 0 0 0 0 0
0 0 0 0 0 0 0 0 0 0 0 0 0 0 0 0 0 0 1 1 1 0 0 0 0 0 0 0 0 0 0 0 0 0 0 0 0 1 1 1 0 0 0
0 0 0 0 0 0 0 0 0 0 0 0 0 0 0 0 0 0 0 0 0 0 0 0 0 0 0 0 0 0 0 0 0 0 0 0 0 1 1 1 1 1 1
0 0 0 0 0 0 0 0 0 0 0 0 0 0 0 0 0 0 0 0 0 0 0 0 0 0 0 0 0 0 0 0 0 0 0 0 0 0 1 2 3 2 1
0 0 0 0 0 0 0 0 0 0 0 0 0 0 0 0 0 0 0 0 0 0 0 0 0 0 0 0 0 0 0 0 0 0 0 0 1 1 1 2 2 2 1
0 0 0 0 0 0 0 0 0 0 0 0 0 0 0 0 0 0 0 0 0 0 0 0 0 0 0 0 0 0 0 0 0 0 0 0 1 2 2 1 1 1 0
0 0 0 0 0 0 0 0 0 0 0 0 0 0 0 0 0 0 0 0 0 0 0 0 0 0 0 0 0 0 0 0 0 0 0 0 0 1 1 1 1 1 1
0 0 0 0 0 0 0 0 0 0 0 0 0 0 0 0 0 0 0 0 0 0 0 0 0 0 0 0 0 0 0 0 0 0 0 0 0 0 0 0 1 1 2
0 0 0 0 0 0 0 0 0 0 0 0 0 0 0 0 0 0 0 0 0 0 0 0 0 0 0 0 0 0 0 0 0 0 0 0 0 0 0 0 0 1 2
0 0 0 0 0 0 0 0 0 0 0 0 0 0 0 0 0 0 0 0 0 0 0 0 0 0 0 0 0 0 0 0 0 0 0 0 0 0 0 0 0 1 2
0 0 0 0 0 0 0 0 0 0 0 0 0 0 0 0 0 0 0 0 0 0 0 0 0 0 0 0 0 0 0 0 0 0 0 0 0 0 0 0 0 1 1
0 0 0 0 0 0 0 0 0 0 0 0 0 0 0 0 0 0 0 0 0 0 0 0 0 0 0 0 0 0 0 0 0 0 0 0 0 0 0 0 0 0 0
0 0 0 0 0 0 0 0 0 0 0 0 0 0 0 0 0 0 0 0 0 0 0 0 0 0 0 0 0 0 0 0 0 0 0 0 0 0 0 0 0 0 0
0 0 0 0 0 0 0 0 0 0 0 0 0 0 0 0 0 0 0 0 0 0 0 0 0 0 0 0 0 0 0 0 0 0 0 0 0 0 0 0 0 0 0
0 0 0 0 0 0 0 0 0 0 0 0 0 0 0 0 0 0 0 0 0 0 0 0 0 0 0 0 0 0 0 0 0 0 0 0 0 0 0 0 0 0 0
0 0 0 0 0 0 0 0 0 0 0 0 0 0 0 0 0 0 0 0 0 0 0 0 0 0 0 0 0 0 0 0 0 0 0 0 0 0 0 0 0 0 0
0 0 0 0 0 0 0 0 0 0 0 0 0 0 0 0 0 0 0 0 0 0 0 0 0 0 0 0 0 0 0 0 0 0 0 0 0 0 0 0 0 0 0
Wind_Speed
4 6 7 7 9 10 11 11 11 12 11 11 11 11 10 10 10 9 9 9 9 8 8 8 8 8 8 8 7 7 7 7 7 7 6 6 6 5 5 4 1 3 6
5 7 8 9 10 11 11 12 12 11 11 11 11 11 10 10 9 9 9 9 8 8 8 8 7 7 7 7 7 6 6 6 6 6 4 4 6 5 5 5 4 5 5
7 7 9 10 11 11 12 12 12 11 11 11 10 10 9 9 9 9 9 8 8 8 8 8 7 7 6 6 6 6 6 6 6 4 1 2 6 6 6 5 4 5 4
8 8 9 11 11 11 12 12 11 11 11 10 10 9 9 9 9 9 8 8 8 8 8 8 7 7 6 6 6 6 6 6 5 3 1 4 4 8 5 5 4 4 4
9 9 11 11 12 12 12 11 11 10 10 10 10 9 9 9 8 8 8 8 8 8 7 7 7 6 6 6 6 6 6 5 2 2 4 4 4 6 5 4 4 4 4
9 10 11 11 12 12 12 11 11 10 10 10 9 9 9 8 8 8 7 7 7 7 7 7 6 6 5 5 6 5 5 3 2 3 3 3 4 6 5 4 4 4 4
10 10 11 12 11 11 11 10 10 10 10 9 9 8 8 8 8 7 7 7 7 6 6 6 5 5 5 5 5 5 4 3 2 3 3 4 6 6 5 5 4 4 4
10 9 11 12 11 11 11 10 10 10 9 9 8 8 8 8 8 8 7 7 6 6 6 6 5 5 5 6 6 6 5 5 3 4 4 4 6 5 5 4 4 4 4
9 8 8 9 11 11 10 10 10 10 9 9 8 8 8 8 8 8 7 7 6 6 6 6 6 6 5 6 6 6 5 4 3 3 4 4 6 5 5 4 5 5 4
8 8 7 8 8 8 9 10 9 9 9 8 8 7 5 5 5 4 5 7 6 6 6 6 6 6 6 6 6 5 2 1 4 4 4 6 6 5 5 5 5 5 5
7 7 7 7 7 6 7 7 6 7 6 3 5 5 1 3 5 4 10 8 7 6 6 6 6 6 5 7 5 2 1 3 5 5 6 9 7 6 6 6 5 5 5
7 7 6 6 6 6 5 5 4 4 4 5 5 5 4 4 4 4 7 7 7 5 5 6 3 3 2 4 5 2 2 4 4 5 7 10 8 8 7 7 6 6 6
7 6 5 5 6 5 4 3 3 3 3 4 5 5 4 4 3 3 2 3 3 2 3 3 2 3 4 4 4 4 5 4 4 5 8 11 10 8 9 8 8 7 7
7 6 6 5 5 5 4 4 3 3 3 3 4 5 4 3 3 4 2 3 2 3 3 3 3 4 5 5 5 6 6 4 5 5 8 12 11 10 10 10 9 9 8
7 6 5 4 4 4 4 2 3 3 3 4 3 4 4 3 3 3 3 2 3 3 3 3 3 5 5 6 6 7 7 7 6 6 6 12 13 13 12 11 10 10 10
7 6 5 4 4 3 3 3 4 3 3 3 4 4 5 4 3 3 3 3 3 3 3 3 4 4 4 5 6 7 7 7 7 6 6 8 13 13 13 12 12 11 11
6 6 5 4 4 4 4 4 3 3 3 4 4 4 5 4 3 3 3 3 3 2 2 3 4 4 4 5 6 7 6 7 6 7 7 5 6 11 13 13 13 13 12
6 6 5 4 4 5 4 4 3 4 4 4 4 4 5 5 5 4 3 3 3 2 2 2 2 3 4 4 5 5 5 5 7 6 6 6 5 6 10 14 14 14 13
6 6 5 5 4 5 5 4 4 4 4 4 4 4 5 5 5 4 3 3 3 2 2 2 3 3 4 4 5 5 5 5 5 6 6 7 7 6 6 9 12 14 15
6 5 6 5 5 5 4 4 4 4 4 4 4 4 6 5 5 4 3 3 3 2 2 3 4 3 3 3 5 5 5 5 5 5 6 6 6 7 7 7 6 8 13
6 6 6 6 5 4 3 3 2 3 3 3 4 5 5 5 5 5 3 4 3 3 2 3 3 5 3 3 4 4 5 6 6 5 5 5 6 7 7 7 6 5 5
7 6 6 5 5 4 2 2 2 3 3 3 3 4 4 4 5 4 4 3 3 2 3 2 2 2 2 0 0 2 3 4 4 5 4 5 6 5 6 7 7 6 6
7 7 5 5 6 5 4 3 3 3 2 2 3 3 4 4 5 4 5 4 3 2 3 2 1 1 2 2 2 2 0 2 3 4 5 5 5 5 5 5 7 7 7
7 7 6 6 6 5 5 4 3 2 2 2 2 2 3 4 4 4 4 4 4 3 3 2 2 1 0 1 2 2 3 2 0 3 3 4 5 6 6 5 6 6 7
8 7 6 6 5 4 4 3 3 2 2 2 2 3 3 3 3 4 3 3 3 3 4 4 3 2 1 1 1 1 2 1 1 1 3 3 3 4 4 5 5 5 6
8 7 6 6 5 4 5 5 4 3 2 3 2 2 2 2 2 4 3 3 3 3 4 3 3 4 3 3 2 2 1 1 1 1 2 2 2 3 3 4 4 4 4
Wind_Direction
90 89 89 92 95 94 94 93 91 90 89 89 89 87 84 82 79 77 75 73 70 70 67 64 64 66 63 62 63 62 61 61 60 62 65 65 61 63 67 73 96 114 86
100 94 95 95 96 94 93 91 90 90 88 86 85 83 80 78 76 76 74 72 69 68 68 67 65 66 65 62 62 61 62 61 57 56 56 92 78 61 63 66 36 51 67
101 99 101 94 94 94 93 92 91 89 86 83 81 80 79 77 74 73 73 70 66 63 61 62 65 67 65 62 59 57 59 56 52 42 299 83 90 72 57 62 60 58 58
102 97 92 92 93 94 93 91 88 85 83 80 76 74 75 73 71 67 68 66 63 59 55 54 60 61 61 58 57 56 55 52 41 318 9 55 66 73 56 53 52 52 51
98 94 93 92 92 92 90 88 85 83 81 78 73 70 71 72 70 68 65 63 61 57 53 53 57 58 56 55 58 60 55 49 16 315 49 50 58 64 51 49 50 49 45
98 94 93 90 90 89 87 85 82 79 78 76 73 69 68 68 64 61 59 55 56 56 55 53 54 58 55 55 62 66 58 28 285 49 49 48 59 61 46 49 54 52 46
96 94 95 90 88 87 86 84 82 79 76 73 69 67 64 62 60 56 50 49 52 54 54 54 56 60 59 60 64 68 57 357 14 52 52 51 53 48 45 55 59 56 47
98 98 101 97 90 86 84 83 79 75 72 69 65 63 59 55 54 53 49 46 50 53 54 56 59 63 65 64 65 62 43 337 57 53 55 56 50 41 47 54 62 60 54
99 96 98 104 103 98 86 78 73 69 66 63 59 57 56 54 51 49 50 48 50 52 56 62 63 68 73 70 68 64 54 6 16 47 47 53 50 43 52 63 64 63 59
105 100 96 96 96 99 98 82 70 64 61 60 57 52 55 82 81 61 63 55 53 56 58 65 67 72 79 76 71 63 46 282 43 57 44 55 49 48 53 63 66 70 68
106 103 100 95 89 85 85 88 87 84 69 76 87 74 21 53 58 74 53 52 56 57 58 59 66 80 102 103 83 64 292 55 64 50 48 43 44 51 57 65 69 73 71
116 109 104 102 99 93 84 87 73 75 68 52 48 54 50 54 46 42 90 70 64 64 79 64 76 149 206 114 122 181 77 73 66 61 56 42 44 54 62 66 70 71 67
114 111 103 102 98 93 92 78 64 64 64 60 50 59 53 53 63 48 68 102 91 81 74 98 139 74 76 68 64 71 59 60 59 55 56 46 45 53 62 65 68 67 64
117 108 103 101 104 95 87 80 73 69 59 56 50 44 43 41 34 44 42 47 54 61 52 57 62 78 76 80 75 74 70 57 61 64 59 48 47 55 60 63 64 63 61
126 119 105 99 89 88 81 77 75 61 46 65 47 38 42 37 38 46 59 52 47 56 75 69 66 70 72 70 67 66 67 63 63 66 70 54 47 51 55 58 60 59 58
133 122 113 105 97 95 98 94 69 62 66 51 46 41 39 41 37 33 54 56 50 48 51 70 80 82 76 74 72 67 59 64 63 66 71 75 59 51 50 54 56 57 57
135 129 120 109 106 94 86 79 72 64 64 60 48 38 45 41 36 38 43 56 54 66 77 70 90 87 89 89 79 71 65 57 62 64 63 58 71 65 53 51 53 55 55
144 136 128 125 112 98 92 88 79 69 63 58 50 38 39 40 41 43 42 47 48 62 80 84 88 98 90 82 77 70 71 66 62 62 68 66 54 60 64 55 52 51 51
153 147 137 121 114 108 104 100 84 76 64 56 50 40 34 37 38 55 41 33 51 64 70 87 86 92 94 90 87 75 65 64 58 57 61 61 62 55 59 67 60 52 47
160 153 137 129 126 119 114 104 96 80 70 58 51 44 36 35 36 45 56 49 48 71 77 94 101 93 93 99 91 83 71 72 63 54 56 59 56 56 53 53 61 62 52
164 161 150 150 140 136 125 119 108 92 77 67 55 45 44 45 44 47 44 52 44 66 72 98 113 119 113 117 124 110 92 69 65 61 51 58 63 55 55 55 47 45 59
172 171 164 162 157 151 133 117 101 94 79 70 64 55 42 47 43 42 50 60 61 74 81 90 116 122 112 133 199 161 140 117 75 62 59 54 57 58 54 53 49 47 42
181 177 175 172 165 164 152 133 128 122 132 117 93 66 47 45 45 43 48 54 51 61 76 80 111 146 135 97 13 331 318 90 113 84 63 64 60 56 53 48 47 43 41
182 178 177 175 173 168 166 168 161 160 122 88 81 90 88 68 60 48 55 57 60 58 69 71 74 90 128 129 96 27 26 52 190 128 107 77 63 57 52 45 43 42 37
178 178 180 174 176 175 183 176 192 166 117 116 117 111 97 80 68 65 56 59 63 66 67 64 61 55 62 48 72 89 89 93 344 117 125 118 93 67 53 46 43 39 35
178 178 181 181 180 179 189 192 197 172 161 152 152 132 123 108 89 78 71 74 72 70 72 69 71 69 55 58 52 55 53 76 87 111 126 128 108 88 71 52 41 36 31